Flag for Germany Weather past 2 weeks in Rastatt, Baden-Württemberg, Germany

Now
73 °F

Scattered clouds.


Feels Like: 75 °F
Forecast: 62 / 88 °F
Wind: 6 mph from Northwest

Location: Karlsruhe - Baden Wurttemberg

Current Time: Aug 28, 2015 at 7:21:02 PM

Latest Report: Aug 28, 2015 at 6:50 PM


Visibility: N/A

Pressure: 30.09 "Hg

Humidity: 74%

Dew point: 64 °F

Location of RastattLocation

Historic Weather in Rastatt — Graph

°F

Rastatt temperature yesterday

Maximum temperature yesterday: 91 °F (at 3:50 PM)
Minimum temperature yesterday: 59 °F (at 3:20 AM)
Average temperature yesterday: 77 °F

Past Weeks' High & Low Weather Summary

 TemperatureHumidityPressure
High91 °F (Aug 13, 6:20 PM)94% (Aug 14, 4:50 AM)30.24 "Hg (Aug 14, 4:50 AM)
Low48 °F (Aug 18, 5:50 AM)21% (Aug 27, 3:20 PM)29.68 "Hg (Aug 24, 7:20 AM)
Average67 °F64%29.97 "Hg
* Reported Aug 13 6:20 PM — Aug 28 6:20 PM, Rastatt, Weather by CustomWeather, © 2015

Note: Actual official high and low records may vary slightly from our data, if they occured in-between our weather recording intervals... More about our weather records

Advertising

Rastatt weather history for previous 24 hours

 ConditionsComfort  
Time TempWeatherWind HumidityBarometerVisibility
6:20 PM
Fri, Aug 28
75 °FScattered clouds.6 mph69%30.09 "Hg6 mi
5:50 PM77 °FScattered clouds.1 mph65%30.09 "HgN/A
5:20 PM77 °FScattered clouds.3 mph65%30.09 "HgN/A
4:50 PM75 °FScattered clouds.2 mph69%30.09 "HgN/A
4:20 PM73 °FScattered clouds.2 mph74%30.09 "HgN/A
3:50 PM72 °FPartly sunny.3 mph78%30.09 "HgN/A
3:20 PM70 °FSprinkles. Partly sunny.8 mph83%30.09 "Hg6 mi
2:50 PM72 °FSprinkles. Broken clouds.7 mph78%30.09 "Hg5 mi
2:20 PM72 °FSprinkles. Broken clouds.5 mph78%30.09 "HgN/A
1:50 PM72 °FScattered showers. Broken clouds.6 mph73%30.07 "HgN/A
1:20 PM72 °FScattered showers. Broken clouds.7 mph78%30.07 "HgN/A
12:50 PM72 °FSprinkles. Broken clouds.10 mph78%30.07 "HgN/A
12:20 PM70 °FSprinkles. Broken clouds.9 mph83%30.07 "HgN/A
11:50 AM70 °FPassing clouds.6 mph83%30.07 "HgN/A
11:20 AM68 °FPartly sunny.6 mph88%30.07 "HgN/A
10:59 AM68 °FLight rain. Partly sunny.6 mph88%30.07 "HgN/A
10:20 AM72 °FSprinkles. Partly sunny.5 mph78%30.04 "HgN/A
9:50 AM72 °FScattered clouds.3 mph78%30.01 "HgN/A
9:20 AM70 °FPartly sunny.3 mph83%30.01 "HgN/A
8:50 AM70 °FPartly sunny.5 mph83%30.01 "HgN/A
8:20 AM68 °FLight rain. Partly sunny.3 mph88%30.01 "HgN/A
7:50 AM66 °FScattered showers. Partly sunny.2 mph94%30.01 "HgN/A
7:20 AM66 °FLight rain. Partly cloudy.2 mph94%29.98 "HgN/A
6:50 AM66 °FScattered showers. Partly cloudy.3 mph94%29.98 "HgN/A
6:20 AM66 °FPassing clouds.2 mph94%29.98 "HgN/A
5:50 AM66 °FLight rain. Passing clouds.5 mph94%29.95 "Hg5 mi
4:50 AM66 °FRain. Passing clouds.1 mph88%29.98 "Hg4 mi
10:50 PM
Thu, Aug 27
77 °FClear.2 mph51%29.83 "Hg10 mi
10:20 PM79 °FClear.3 mph45%29.83 "Hg10 mi
9:50 PM81 °FPassing clouds.5 mph42%29.80 "HgN/A
9:20 PM81 °FClear.6 mph42%29.80 "Hg10 mi
8:50 PM81 °FSunny.5 mph42%29.80 "Hg10 mi
8:20 PM81 °FSunny.5 mph39%29.80 "Hg10 mi
7:50 PM84 °FSunny.6 mph35%29.80 "Hg10 mi
7:20 PM84 °FSunny.8 mph31%29.80 "Hg10 mi
Weather by CustomWeather, © 2015

See weather overviewHow to use our weather pages